Home   Weather   Brno   Past weeks

Flag for Czech Republic Past Weather in Brno, Czech Republic — Yesterday and Last 2 Weeks

Now
74 °F

Scattered clouds.


Feels Like: 77 °F
Forecast: 52 / 78 °F
Wind: 3 mph from South

Location: Brno / Turany

Current Time: Sep 29, 2016 at 7:01:18 PM

Latest Report: Sep 29, 2016 at 6:00 PM


Visibility: 31 mi

Pressure: 30.05 "Hg

Humidity: 43%

Dew Point: 51 °F

Location of BrnoLocation

Past Weather in Brno — Graph

°F

Brno Temperature Yesterday

Maximum temperature yesterday: 74 °F (at 4:00 PM)
Minimum temperature yesterday: 43 °F (at 7:00 AM)
Average temperature yesterday: 58 °F

High & Low Weather Summary for the Past Weeks

 TemperatureHumidityPressure
High82 °F (Sep 15, 4:00 PM)96% (Sep 19, 6:00 AM)30.39 "Hg (Sep 19, 6:00 AM)
Low42 °F (Sep 23, 5:00 AM)40% (Sep 29, 3:00 PM)29.77 "Hg (Sep 17, 6:00 AM)
Average60 °F69%30.10 "Hg
* Reported Sep 14 5:00 PM — Sep 29 5:00 PM, Brno, Weather by CustomWeather, © 2016

Note: Actual official high and low records may vary slightly from our data, if they occured in-between our weather recording intervals... More about our weather records

Advertising

Brno Weather History for the Previous 24 Hours

Scroll right to see more
 ConditionsComfort  
Time TempWeatherWind HumidityBarometerVisibility
5:00 PM
Thu, Sep 29
77 °FPartly sunny.6 mph41%30.06 "Hg31 mi
4:00 PM77 °FPartly sunny.6 mph40%30.07 "Hg22 mi
3:00 PM76 °FPartly sunny.6 mph40%30.09 "Hg22 mi
2:00 PM75 °FPartly sunny.5 mph45%30.12 "Hg22 mi
1:00 PM72 °FOvercast.5 mph51%30.16 "Hg22 mi
11:00 AM65 °FPartly sunny.2 mph64%30.23 "Hg16 mi
9:00 AM60 °FPartly sunny.2 mph78%30.25 "Hg7 mi
8:00 AM56 °FPartly sunny.1 mph86%30.26 "Hg6 mi
7:00 AM55 °FOvercast.2 mph87%30.26 "Hg9 mi
6:00 AM55 °FOvercast.1 mph86%30.26 "Hg19 mi
5:00 AM56 °FPassing clouds.1 mph85%30.27 "Hg19 mi
4:00 AM56 °FPassing clouds.3 mph85%30.27 "Hg19 mi
3:00 AM56 °FPassing clouds.2 mph82%30.27 "Hg9 mi
2:00 AM57 °FPassing clouds.3 mph79%30.27 "Hg10 mi
1:00 AM59 °FPassing clouds.3 mph74%30.26 "Hg10 mi
12:00 AM60 °FPassing clouds.5 mph74%30.26 "Hg19 mi
11:00 PM
Wed, Sep 28
60 °FPassing clouds.3 mph72%30.27 "Hg19 mi
10:00 PM62 °FPassing clouds.6 mph65%30.25 "Hg19 mi
9:00 PM65 °FPassing clouds.5 mph61%30.25 "Hg19 mi
8:00 PM64 °FPassing clouds.5 mph66%30.25 "Hg19 mi
Weather by CustomWeather, © 2016

See weather overviewHow to use our weather pages